Flag for Canada Weather past 2 weeks in Kamloops, British Columbia, Canada

Now
50 °F

Clear.


Feels Like: 49 °F
Forecast: 44 / 71 °F
Wind: 3 mph from Southwest

Location: Kamloops

Current Time: Sep 5, 2015 at 1:49:36 AM

Latest Report: Sep 5, 2015 at 1:00 AM


Visibility: 40 mi

Pressure: 30.04 "Hg

Humidity: 62%

Dew point: 37 °F

Location of KamloopsLocation

Historic Weather in Kamloops — Graph

°F

Kamloops temperature yesterday

Maximum temperature yesterday: 66 °F (at 3:00 PM)
Minimum temperature yesterday: 45 °F (at 5:00 AM)
Average temperature yesterday: 55 °F

Past Weeks' High & Low Weather Summary

 TemperatureHumidityPressure
High90 °F (Aug 27, 4:00 PM)82% (Aug 22, 4:00 AM)30.23 "Hg (Aug 22, 4:00 AM)
Low45 °F (Sep 4, 5:00 AM)12% (Aug 25, 5:00 PM)29.44 "Hg (Aug 29, 10:00 AM)
Average66 °F44%29.86 "Hg
* Reported Midnight between Aug 20 and Aug 21 — Midnight between Sep 4 and Sep 5, Kamloops, Weather by CustomWeather, © 2015

Note: Actual official high and low records may vary slightly from our data, if they occured in-between our weather recording intervals... More about our weather records

Advertising

Kamloops weather history for previous 24 hours

 ConditionsComfort  
Time TempWeatherWind HumidityBarometerVisibility
12:00 AM
Sat, Sep 5
54 °FClear.9 mph54%30.02 "Hg40 mi
11:00 PM
Fri, Sep 4
54 °FClear.5 mph51%30.03 "Hg40 mi
10:00 PM57 °FClear.3 mph44%30.03 "Hg40 mi
9:00 PM59 °FPassing clouds.3 mph42%30.02 "Hg35 mi
8:00 PM63 °FScattered clouds.6 mph37%30.00 "Hg40 mi
7:00 PM63 °FScattered clouds.8 mph45%30.00 "Hg40 mi
6:00 PM64 °FBroken clouds.15 mph43%29.99 "Hg40 mi
5:00 PM66 °FBroken clouds.16 mph40%30.00 "Hg40 mi
4:00 PM66 °FScattered clouds.18 mph37%30.01 "Hg40 mi
3:00 PM66 °FScattered clouds.17 mph37%30.02 "Hg40 mi
2:00 PM64 °FScattered clouds.9 mph40%30.04 "Hg40 mi
1:00 PM63 °FPassing clouds.10 mph42%30.06 "Hg40 mi
12:00 PM61 °FPassing clouds.12 mph45%30.09 "Hg40 mi
11:00 AM57 °FPassing clouds.8 mph51%30.11 "Hg40 mi
10:00 AM54 °FScattered clouds.No wind58%30.13 "Hg40 mi
9:00 AM52 °FScattered clouds.3 mph67%30.13 "Hg40 mi
8:00 AM48 °FScattered clouds.3 mph71%30.13 "Hg40 mi
7:00 AM45 °FPartly cloudy.2 mph76%30.12 "Hg40 mi
6:00 AM46 °FPartly cloudy.No wind71%30.11 "Hg40 mi
5:00 AM45 °FPassing clouds.6 mph76%30.10 "Hg40 mi
4:00 AM46 °FPassing clouds.5 mph71%30.09 "Hg40 mi
3:00 AM46 °FPartly cloudy.5 mph71%30.09 "Hg40 mi
2:00 AM46 °FPassing clouds.5 mph76%30.08 "Hg40 mi
1:00 AM46 °FPartly cloudy.7 mph76%30.07 "Hg40 mi
Weather by CustomWeather, © 2015

See weather overviewHow to use our weather pages